Location: Aghk�ilisa
(40.0189°N, 45.0097°E)
Time: 16:06:04
(UTC+00:00)

Cosmos 1271 Rocket - Pass Details

Date: 21 October 2019
Orbit: 499 x 545 km, 81.2° (Epoch: 21 November)

Event Time Altitude Azimuth Distance (km) Brightness Sun altitude
Rises 14:28:16 0° 350° (N) 2,706 6.4 -3.8°
Reaches altitude 10° 14:30:26 10° 349° (N) 1,814 5.5 -4.2°
Maximum altitude 14:34:26 84° 263° (W) 553 2.9 -4.9°
Drops below altitude 10° 14:38:26 10° 174° (S) 1,807 5.5 -5.7°
Sets 14:40:35 0° 174° (S) 2,695 6.4 -6.1°
